Location: Unspecified
(0.0000°N, 0.0000°E)
Time: 09:46:38
(UTC+00:00)

Vanguard 2 - Pass Details

Date: 28 October 2021
Orbit: 554 x 2936 km, 32.9° (Epoch: 06 December)

Event Time Altitude Azimuth Distance (km) Brightness Sun altitude
Rises 20:05:49 0° 234° (SW) 5,959 13.0 -34.4°
Reaches altitude 10° 20:09:20 10° 234° (SW) 5,181 12.4 -35.3°
Maximum altitude 20:25:57 90° 138° (SE) 2,928 10.1 -39.2°
Enters shadow 20:29:28 68° 53° (NE) 3,086 10.1 -40.1°
Drops below altitude 10° 20:43:22 10° 54° (NE) 5,392 - -43.4°
Sets 20:47:07 0° 54° (NE) 6,200 - -44.3°
